Location: Unspecified
(0.0000°N, 0.0000°E)
Time: 13:26:30
(UTC+00:00)

SR - All Passes

Search period start: 30 September 2016 00:00
Search period end: 10 October 2016 00:00
Orbit: 584 x 874 km, 66.7° (Epoch: 29 September)

Date Brightness Start Highest point End Pass type
(mag) Time Alt. Az. Time Alt. Az. Time Alt. Az.
30 Sep - 05:30:37 10° SE 05:32:01 11° ESE 05:33:24 10° E daylight
30 Sep - 07:09:36 10° SW 07:13:56 34° WNW 07:17:59 10° N daylight
30 Sep - 17:52:39 10° N 17:57:18 33° ENE 18:02:17 10° SE daylight
30 Sep - 19:35:46 10° WNW 19:39:14 17° WSW 19:42:52 10° SSW visible
01 Oct - 06:19:53 10° SSW 06:24:45 82° ESE 06:29:13 10° NNE daylight
01 Oct - 17:05:45 10° NE 17:08:07 13° ENE 17:10:33 10° E daylight
01 Oct - 18:44:53 10° NW 18:49:51 42° WSW 18:55:12 10° S visible
02 Oct - 05:31:16 10° S 05:35:26 28° ESE 05:39:20 10° NE daylight
02 Oct - 07:15:02 10° W 07:17:08 13° WNW 07:19:11 10° NW daylight
02 Oct - 17:55:19 10° NNW 18:00:33 79° ENE 18:06:15 10° SSE daylight
03 Oct - 04:45:25 10° ESE 04:46:02 10° ESE 04:46:37 10° ESE visible
03 Oct - 06:23:35 10° SW 06:27:58 36° WNW 06:32:03 10° N daylight
03 Oct - 17:06:45 10° N 17:11:21 31° ENE 17:16:15 10° SE daylight
03 Oct - 18:49:35 10° WNW 18:53:16 18° WSW 18:57:06 10° SSW visible
04 Oct - 05:33:56 10° SSW 05:38:46 77° ESE 05:43:13 10° NNE daylight
04 Oct - 16:20:03 10° NE 16:22:09 12° ENE 16:24:19 10° E daylight
04 Oct - 17:58:50 10° NW 18:03:53 44° WSW 18:09:18 10° S daylight
05 Oct - 04:45:24 10° SSE 04:49:27 26° ESE 04:53:14 10° NE visible
05 Oct - 06:28:49 10° WSW 06:31:09 14° WNW 06:33:26 10° NW daylight
05 Oct - 17:09:20 10° NNW 17:14:36 74° ENE 17:20:17 10° SSE daylight
06 Oct - 05:37:34 10° SW 05:41:59 38° WNW 05:46:06 10° N daylight
06 Oct - 16:20:50 10° NNE 16:25:23 30° ENE 16:30:14 10° SE daylight
06 Oct - 18:03:26 10° WNW 18:07:18 20° WSW 18:11:19 10° SSW visible
07 Oct - 04:47:59 10° SSW 04:52:46 71° ESE 04:57:11 10° NNE visible
07 Oct - 15:34:25 10° NE 15:36:11 12° ENE 15:38:00 10° E daylight
07 Oct - 17:12:48 10° NW 17:17:54 47° WSW 17:23:24 10° S daylight
08 Oct - 03:59:32 10° SSE 04:03:27 25° ESE 04:07:07 10° ENE visible
08 Oct - 05:42:38 10° WSW 05:45:10 15° WNW 05:47:37 10° NW daylight
08 Oct - 16:23:21 10° NNW 16:28:38 70° ENE 16:34:19 10° SSE daylight
09 Oct - 04:51:33 10° SW 04:56:00 41° WNW 05:00:09 10° N visible
09 Oct - 15:34:55 10° NNE 15:39:25 28° ENE 15:44:12 10° SE daylight
09 Oct - 17:17:18 10° WNW 17:21:19 21° WSW 17:25:31 10° SSW daylight
